Terug naar catalogus

STARLINK-30998

ActiefCommunicatieVLEO
NORAD 58513·PAYLOAD·🇺🇸 United States

Gelanceerd Dec 7, 2023 vanaf Cape Canaveral Space Force Station

Loading…

Volgende Passages (komende 24 uur)

TLE

VersSource: CelesTrak SupGP

Epoch: Sep 14, 2026, 20:40 UTC

1 58513C 23191F   26257.86159722 -.00020714  00000+0 -75047-3 0  2578
2 58513  42.9991 115.4934 0001306 268.9914 249.5138 15.27579377    10

Volg STARLINK-30998 in realtime met AllMySat

Download on the App Store